Weather History for PAKW - March, 2014

Change the Weather History Date:

Sunday, March 16, 2014

  Actual Average Record
Temperature  
Mean Temperature 36 °F -  
Max Temperature 42 °F 42 °F 52 °F (2015)
Min Temperature 30 °F 29 °F 12 °F (2006)
Degree Days  
Heating Degree Days 29    
Moisture  
Dew Point 32 °F    
Average Humidity 88    
Maximum Humidity 100    
Minimum Humidity 49    
Precipitation  
Precipitation 0.53 in - - ()
Sea Level Pressure  
Sea Level Pressure 29.82 in    
Wind  
Wind Speed 7 mph (SW)    
Max Wind Speed 15 mph    
Max Gust Speed 28 mph    
Visibility 7 miles    
Events Rain , Snow    
Averages and records for this station are not official NWS values.
T = Trace of Precipitation, MM = Missing Value Source: NWS Daily Summary

Daily Weather History Graph

Daily Weather History Graph

Search for Another Location

Airport or City:

Trip Planner

Search our weather history database for the weather conditions in past years. The results will help you decide how hot, cold, wet, or windy it might be!

Date:

Astronomy

Mar. 16, 2014 Rise Set
Actual Time 7:04 AM AKDT 6:58 PM AKDT
Civil Twilight 6:27 AM AKDT 7:35 PM AKDT
Nautical Twilight 5:44 AM AKDT 8:18 PM AKDT
Astronomical Twilight 4:59 AM AKDT 9:03 PM AKDT
Moon 7:32 PM AKDT (3/16) 6:47 AM AKDT (3/16)
Length of Visible Light 13h 07m
Length of Day
11h 54m
Full, 100% of the Moon is Illuminated
Mar 16
Full
Mar 23
Last Quarter
Mar 30
New
Apr 7
First Quarter
Apr 14
Full

Hourly Weather History & Observations

Time (AKDT) Temp. Windchill Dew Point Humidity Pressure Visibility Wind Dir Wind Speed Gust Speed Precip Events Conditions
12:53 AM 41.0 °F 39.0 °F 39.0 °F 93% 29.39 in 5.0 mi NNE 3.5 mph - 0.09 in Rain Rain
1:53 AM 39.9 °F 37.8 °F 39.9 °F 100% 29.39 in 4.0 mi Variable 3.5 mph - 0.08 in Rain Light Rain
2:53 AM 42.1 °F 40.2 °F 41.0 °F 96% 29.41 in 6.0 mi Variable 3.5 mph - 0.04 in Rain Light Rain
3:25 AM 42.1 °F 38.4 °F 41.0 °F 96% 29.42 in 4.0 mi Variable 5.8 mph - 0.01 in Rain Light Rain
3:35 AM 42.1 °F 37.1 °F 41.0 °F 96% 29.43 in 5.0 mi SSW 8.1 mph - 0.01 in Rain Light Rain
3:53 AM 42.1 °F 36.6 °F 39.9 °F 92% 29.44 in 10.0 mi SSW 9.2 mph 18.4 mph 0.01 in Rain Light Rain
4:26 AM 42.1 °F 36.6 °F 39.9 °F 92% 29.45 in 10.0 mi SSW 9.2 mph - 0.01 in Rain Light Rain
4:39 AM 41.0 °F 33.9 °F 39.9 °F 96% 29.47 in 2.5 mi SW 12.7 mph 18.4 mph 0.04 in Rain Heavy Rain
4:49 AM 39.2 °F 32.0 °F 39.2 °F 100% 29.48 in 5.0 mi SW 11.5 mph 19.6 mph 0.05 in Rain Light Rain
4:53 AM 39.0 °F 31.4 °F 39.0 °F 100% 29.49 in 5.0 mi SW 12.7 mph 19.6 mph 0.05 in Rain Light Rain
5:49 AM 35.6 °F 28.0 °F 33.8 °F 93% 29.57 in 5.0 mi SW 10.4 mph 23.0 mph 0.13 in Rain Rain
5:53 AM 34.0 °F 26.6 °F 34.0 °F 100% 29.58 in 5.0 mi SSW 9.2 mph 23.0 mph 0.14 in Rain Rain
6:09 AM 34.0 °F 26.0 °F 34.0 °F 100% 29.59 in 6.0 mi SSW 10.4 mph - 0.03 in Rain Light Rain
6:53 AM 35.1 °F 29.3 °F 34.0 °F 96% 29.64 in 6.0 mi SW 6.9 mph - 0.07 in Rain Light Rain
7:35 AM 35.1 °F 27.9 °F 34.0 °F 96% 29.67 in 8.0 mi WSW 9.2 mph 26.5 mph 0.03 in Rain Light Rain
8:30 AM 35.1 °F 29.3 °F 34.0 °F 96% 29.71 in 6.0 mi Variable 6.9 mph 18.4 mph 0.05 in Rain Light Rain
8:53 AM 36.0 °F 28.5 °F 34.0 °F 93% 29.73 in 10.0 mi WSW 10.4 mph 17.3 mph 0.05 in Rain Light Rain
9:10 AM 35.1 °F 27.4 °F 33.1 °F 92% 29.75 in 10.0 mi WSW 10.4 mph - 0.00 in   Overcast
9:53 AM 36.0 °F 28.5 °F 30.9 °F 82% 29.79 in 10.0 mi West 10.4 mph - 0.00 in   Overcast
10:53 AM 37.0 °F 29.3 °F 30.0 °F 76% 29.83 in 10.0 mi West 11.5 mph 23.0 mph N/A   Mostly Cloudy
11:53 AM 37.0 °F 33.3 °F 28.9 °F 73% 29.88 in 10.0 mi WSW 4.6 mph 16.1 mph N/A   Overcast
12:53 PM 39.0 °F 30.6 °F 28.0 °F 65% 29.93 in 10.0 mi West 15.0 mph 27.6 mph N/A   Scattered Clouds
1:53 PM 37.9 °F 30.0 °F 27.0 °F 65% 29.97 in 10.0 mi West 12.7 mph 19.6 mph N/A   Overcast
2:53 PM 37.9 °F 30.0 °F 21.9 °F 53% 30.00 in 10.0 mi WNW 12.7 mph 21.9 mph N/A   Partly Cloudy
3:53 PM 39.9 °F 31.8 °F 21.9 °F 49% 30.03 in 10.0 mi West 15.0 mph 24.2 mph N/A   Scattered Clouds
4:53 PM 36.0 °F 30.3 °F 28.9 °F 76% 30.05 in 9.0 mi West 6.9 mph 24.2 mph 0.00 in Snow Light Snow
5:53 PM 36.0 °F 31.1 °F 24.1 °F 62% 30.06 in 10.0 mi Variable 5.8 mph - 0.00 in   Partly Cloudy
6:18 PM 35.1 °F 30.1 °F 28.0 °F 76% 30.06 in 9.0 mi Variable 5.8 mph - 0.00 in   Mostly Cloudy
6:53 PM 35.1 °F - 26.1 °F 70% 30.06 in 10.0 mi Calm Calm - 0.00 in   Mostly Cloudy
7:53 PM 32.0 °F 26.4 °F 28.9 °F 88% 30.08 in 3.0 mi SW 5.8 mph - 0.00 in Snow Light Snow
7:58 PM 32.0 °F 25.6 °F 30.0 °F 92% 30.08 in 1.8 mi SSW 6.9 mph - 0.00 in Snow Light Snow
8:05 PM 32.0 °F - 30.0 °F 92% 30.08 in 1.0 mi Calm Calm - 0.00 in Snow Light Snow
8:10 PM 32.0 °F - 30.9 °F 96% 30.08 in 2.0 mi Calm Calm - 0.00 in Snow Light Snow
8:18 PM 32.0 °F - 30.9 °F 96% 30.08 in 9.0 mi Calm Calm - 0.00 in Snow Light Snow
8:27 PM 32.0 °F - 30.9 °F 96% 30.08 in 10.0 mi Calm Calm - 0.00 in   Overcast
8:53 PM 32.0 °F 27.5 °F 30.0 °F 92% 30.08 in 10.0 mi SSE 4.6 mph - 0.00 in   Mostly Cloudy
9:03 PM 30.9 °F 26.2 °F 30.0 °F 96% 30.08 in 10.0 mi South 4.6 mph - N/A   Scattered Clouds
9:53 PM 32.0 °F 26.4 °F 28.9 °F 88% 30.09 in 10.0 mi SW 5.8 mph - N/A   Overcast
10:39 PM 32.0 °F 28.7 °F 30.0 °F 92% 30.08 in 3.0 mi South 3.5 mph - 0.00 in Snow Light Snow
10:43 PM 32.0 °F 28.7 °F 30.0 °F 92% 30.08 in 1.8 mi South 3.5 mph - 0.00 in Snow Light Snow
10:48 PM 32.0 °F 26.4 °F 30.2 °F 93% 30.08 in 2.0 mi Variable 5.8 mph - 0.00 in Snow Light Snow
11:53 PM 33.1 °F - 30.0 °F 89% 30.08 in 10.0 mi Calm Calm - 0.00 in   Overcast